Time,B instrument,Bx,By,Bz,sigma B,Ion instrument,Status,Tp_par,Tp_perp,carrot,r_sun,clat,clong,earth_he_angle,n_p,vp_x,vp_y,vp_z,vth_p_par,vth_p_perp
1980-01-10 00:00:39,1,-2.52308,7.23077,-3.91538,0.618167,1,1,36242.1,70647.6,1690,0.82009041,3.9565506,120.60205,293.69971,6.88138,342.726,26.5588,-12.169,24.4605,34.1513
1980-01-10 00:01:20,1,-4.25385,5.94615,-4.51538,0.488446,1,1,37755.0,80173.7,1690,0.82009566,3.9564762,120.59814,293.69971,7.28816,333.107,22.816,-12.9469,24.9658,36.3809
1980-01-10 00:02:00,1,-4.65,5.43333,-4.66667,0.406544,1,1,32958.0,69606.3,1690,0.8201009,3.9564028,120.59009,293.69946,6.48215,327.921,18.9431,-13.674,23.3259,33.8986
1980-01-10 00:02:41,1,-1.45455,7.71818,-3.86364,0.350207,1,1,49185.3,78277.4,1690,0.8201009,3.9564028,120.58228,293.69946,8.00812,348.508,29.4243,-11.8995,28.4954,35.9481
1980-01-10 00:03:21,1,-2.925,7.11667,-3.83333,0.758608,1,1,45571.3,64356.7,1690,0.82010615,3.9563293,120.57837,293.69946,7.19994,345.33,29.6694,-10.5719,27.4286,32.5953
1980-01-10 00:04:02,1,-2.50769,7.36923,-3.8,0.399704,1,1,43519.3,79187.2,1690,0.82011139,3.9562559,120.57056,293.69946,7.97043,344.222,27.2013,-12.2541,26.804,36.1564
1980-01-10 00:04:42,1,-2.35833,7.45,-3.73333,0.289516,1,1,45155.5,64305.8,1690,0.82011139,3.9562559,120.56665,293.69946,7.40646,343.659,28.5646,-13.2602,27.3032,32.5824
1980-01-10 00:05:23,1,-2.45385,7.32308,-3.79231,0.263791,1,1,41953.8,72412.5,1690,0.82011664,3.9561825,120.55884,293.69946,7.75376,341.814,27.5892,-13.0025,26.3174,34.5752
1980-01-10 00:06:03,1,-2.32308,7.4,-3.82308,0.353679,1,1,44666.4,67746.8,1690,0.82012188,3.956109,120.55493,293.69946,7.09648,341.634,24.8033,-14.2347,27.1549,33.4428
1980-01-10 00:06:44,1,-2.13333,7.39167,-3.83333,0.381062,1,1,44975.0,72513.1,1690,0.82012188,3.956109,120.54712,293.69946,7.26469,347.391,27.1905,-16.1635,27.2486,34.5992
1980-01-10 00:07:24,1,-2.14615,7.36154,-3.96154,0.473436,1,1,41747.5,66382.1,1690,0.82012713,3.9560347,120.53931,293.69946,7.34943,347.995,30.0602,-12.0642,26.2527,33.1042
1980-01-10 00:08:05,1,-1.78333,7.40833,-3.8,0.319613,1,1,41540.3,77712.0,1690,0.82013237,3.9559612,120.5354,293.69946,7.67492,347.471,29.4425,-11.4007,26.1874,35.8181
1980-01-10 00:08:45,1,-1.6,7.48462,-3.73077,0.208403,1,1,41332.2,71295.5,1690,0.82013237,3.9559612,120.52759,293.69946,7.25292,346.384,26.4166,-15.0441,26.1217,34.3075
1980-01-10 00:09:26,1,-1.53077,7.51538,-3.99231,0.336709,1,1,39580.7,74066.3,1690,0.82013762,3.9558878,120.52368,293.69946,7.14477,349.422,29.0364,-11.4813,25.5623,34.9678
1980-01-10 00:10:06,1,-1.82857,7.69286,-3.4,0.866762,1,1,42970.2,61916.6,1690,0.82014287,3.9558144,120.51587,293.69946,6.68198,346.149,27.7902,-11.7291,26.6343,31.9714
1980-01-10 00:10:47,1,0.025,7.28333,-5.0,0.57729,1,1,41718.9,65295.3,1690,0.82014287,3.9558144,120.51196,293.69946,6.73928,357.146,24.5258,-18.0843,26.2437,32.8321
1980-01-10 00:11:27,1,-0.523077,7.53077,-4.53077,0.845734,1,1,49109.4,73447.4,1690,0.82014811,3.9557409,120.50415,293.69946,7.65032,348.316,26.4751,-11.4454,28.4735,34.8214
1980-01-10 00:12:08,1,-1.36667,7.86667,-3.41667,0.600694,1,1,47400.6,82504.0,1690,0.82015336,3.9556675,120.49634,293.69946,7.3128,349.82,28.102,-10.1155,27.9737,36.9059
1980-01-10 00:12:48,1,-1.08462,8.06923,-2.90769,0.771305,1,1,49855.2,72090.5,1690,0.82015336,3.9556675,120.49243,293.69946,7.29059,354.104,30.44,-10.1791,28.6889,34.4982
1980-01-10 00:13:29,1,-1.03333,7.3,-4.28333,0.624722,1,1,39762.8,77976.2,1690,0.8201586,3.9555931,120.48462,293.69946,7.05809,349.574,29.0158,-14.2104,25.621,35.8789
1980-01-10 00:14:09,1,-1.075,7.81667,-3.68333,0.472214,1,1,51392.8,75505.3,1690,0.82016385,3.9555197,120.48071,293.69946,7.59102,353.219,26.4417,-14.6405,29.1279,35.3058
1980-01-10 00:14:50,1,-1.11538,8.1,-2.76923,0.89977,1,1,51103.1,84047.4,1690,0.82016385,3.9555197,120.4729,293.69946,7.75184,350.764,31.3809,-8.58585,29.0457,37.2495
1980-01-10 00:15:30,1,-1.12308,8.21538,-2.3,0.514408,1,1,45640.0,77659.8,1690,0.82016909,3.9554462,120.46509,293.69946,7.36305,352.368,33.8672,-2.44403,27.4493,35.806
1980-01-10 00:16:11,1,-0.941667,7.9,-3.46667,0.621546,1,1,47361.7,73721.1,1690,0.82017434,3.9553728,120.46118,293.69946,7.8258,353.367,31.076,-5.71489,27.9622,34.8862
1980-01-10 00:16:51,1,-1.04615,7.84615,-3.5,0.431867,1,1,47821.8,78624.4,1690,0.82017434,3.9553728,120.45337,293.69946,7.76857,352.434,31.0983,-9.7863,28.0977,36.0277
1980-01-10 00:17:32,1,-1.03846,7.7,-3.71538,0.389051,1,1,47860.1,78041.1,1690,0.82017958,3.9552994,120.44946,293.69946,7.96957,351.104,29.0694,-7.86239,28.109,35.8938
1980-01-10 00:18:12,1,-0.953846,7.84615,-3.40769,0.434462,1,1,45236.1,75290.5,1690,0.82018483,3.9552259,120.44165,293.69946,7.72222,349.847,29.6522,-10.0262,27.3275,35.2556
1980-01-10 00:18:53,1,-1.16667,7.75833,-3.55,0.430681,1,1,43577.1,71754.3,1690,0.82018483,3.955225,120.43774,293.69946,7.6032,348.75,29.7272,-9.13204,26.8217,34.4177
1980-01-10 00:19:33,1,-0.25,7.85,-3.93333,0.349603,1,1,48296.4,70088.9,1690,0.82019007,3.9551516,120.42993,293.69946,7.57811,353.14,29.0457,-8.39475,28.2368,34.0159
1980-01-10 00:20:14,1,0.725,7.71667,-4.03333,0.898417,1,1,47174.2,72213.9,1690,0.82019538,3.9550781,120.42212,293.69946,7.64764,363.551,26.8918,-16.0066,27.9068,34.5277
1980-01-10 00:20:54,1,0.0923077,7.80769,-3.5,0.348454,1,1,47388.9,71851.7,1690,0.82019538,3.9550781,120.41821,293.69946,7.6475,359.387,26.8279,-13.0684,27.9703,34.441
1980-01-10 00:21:35,1,-0.507692,7.89231,-3.5,0.473811,1,1,39114.6,72062.5,1690,0.82020062,3.9550047,120.4104,293.69946,6.83978,355.538,30.8279,-12.7673,25.4113,34.4915
1980-01-10 00:22:15,1,0.338462,7.49231,-3.99231,1.22,1,1,44664.1,68338.7,1690,0.82020587,3.9549313,120.40649,293.69946,7.68377,353.044,27.5126,-12.1178,27.1542,33.5886
1980-01-10 00:22:56,1,0.95,7.625,-3.73333,0.4654,1,1,41320.6,74853.9,1690,0.82020587,3.9549313,120.39868,293.69946,7.5587,364.086,31.6756,-13.4942,26.1181,35.1532
1980-01-10 00:23:36,1,0.661538,8.08462,-2.66923,0.682495,1,1,50747.6,76426.4,1690,0.82021111,3.9548578,120.39478,293.69946,7.48802,358.963,31.018,-10.8254,28.9445,35.5205
1980-01-10 00:24:17,1,-0.153846,8.08462,-2.76154,0.844894,1,1,52797.7,77843.2,1690,0.82021636,3.9547844,120.38696,293.69946,7.78993,357.876,30.0992,-8.57218,29.5233,35.8483
1980-01-10 00:24:57,1,0.357143,8.08571,-2.88571,0.286428,1,1,54041.9,78331.0,1690,0.82021636,3.9547834,120.37915,293.69946,7.29915,358.177,33.9097,-8.48869,29.8692,35.9604
1980-01-10 00:25:38,1,-0.141667,8.28333,-2.23333,0.657806,1,1,41437.8,72816.9,1690,0.8202216,3.95471,120.37524,293.69946,6.69909,359.128,34.1829,-6.57589,26.1551,34.6716
1980-01-10 00:26:18,1,0.721429,8.17143,-2.87143,0.405385,1,1,50872.2,75038.4,1690,0.82022685,3.9546366,120.36743,293.69946,7.39902,361.89,32.3406,-8.56917,28.98,35.1965
1980-01-10 00:26:59,1,0.225,8.325,-2.61667,0.637813,1,1,57984.7,77909.9,1690,0.82022685,3.9546366,120.36353,293.69946,7.64208,360.83,33.8161,-6.41004,30.9396,35.8636
1980-01-10 00:27:39,1,0.623077,8.53846,-1.78462,0.707692,1,1,48385.9,82438.4,1690,0.82023209,3.9545631,120.35571,293.69946,8.15423,355.882,34.5304,0.810064,28.2629,36.8912
1980-01-10 00:28:20,1,1.86667,8.35,-1.4,0.528888,1,1,55964.3,82007.8,1690,0.82023734,3.9544897,120.3479,293.69946,7.70112,365.695,37.1115,5.15016,30.3958,36.7947
1980-01-10 00:29:00,1,1.73077,8.4,-0.746154,0.47231,1,1,49965.1,76338.4,1690,0.82024258,3.9544163,120.34399,293.69946,7.91381,361.399,34.9078,2.9497,28.7205,35.5001
1980-01-10 00:29:41,1,0.923077,8.61538,-0.438462,0.635535,1,1,56836.6,77616.4,1690,0.82024258,3.9544163,120.33618,293.69946,7.19088,363.336,38.1606,11.3732,30.6318,35.796
1980-01-10 00:30:21,1,-0.235714,8.55714,-0.0214286,0.523041,1,1,47826.9,72372.4,1690,0.82024783,3.9543428,120.33228,293.69946,7.57978,349.143,35.3808,5.45368,28.0992,34.5656
1980-01-10 00:31:02,1,-0.358333,8.625,0.275,0.539611,1,1,55684.7,84531.8,1690,0.82025307,3.9542685,120.32446,293.69946,8.05853,354.463,37.9353,13.2914,30.3198,37.3566
1980-01-10 00:31:42,1,-1.07692,8.49231,0.169231,0.796145,1,1,45498.5,84554.2,1690,0.82025307,3.9542685,120.32056,293.69946,7.52316,346.367,34.6664,11.2051,27.4067,37.3616
1980-01-10 00:32:23,1,-0.484615,8.43077,1.16923,0.434326,1,1,51849.0,80581.6,1690,0.82025832,3.954195,120.3125,293.69922,7.48615,352.132,37.3819,17.8956,29.2569,36.4734
1980-01-10 00:33:03,1,-0.55,8.50714,1.22857,0.693483,1,1,47706.0,81922.2,1690,0.82026356,3.9541216,120.30469,293.69922,8.08051,356.549,34.9857,22.4017,28.0637,36.7755
1980-01-10 00:33:44,1,-1.66923,8.44615,0.384615,0.586838,1,1,26467.3,71669.5,1690,0.82026356,3.9541216,120.30078,293.69922,6.89088,342.769,33.8072,20.0386,20.9032,34.3974
1980-01-10 00:34:24,1,-0.8,8.64615,0.753846,0.42829,1,1,45340.4,65935.1,1690,0.82026881,3.9540482,120.29297,293.69922,6.62382,352.706,34.8619,21.2452,27.359,32.9926
1980-01-10 00:35:05,1,-2.525,8.28333,0.783333,0.724329,1,1,32134.3,68936.4,1690,0.82027406,3.9539747,120.28906,293.69922,6.83188,337.339,32.7888,20.9255,23.0326,33.7351
1980-01-10 00:35:45,1,-1.975,8.23333,-1.93333,0.494624,1,1,47427.6,71293.4,1690,0.82027406,3.9539747,120.28125,293.69922,7.99405,346.471,31.3678,-3.3739,27.9817,34.307
1980-01-10 00:36:26,1,-1.54167,8.44167,-1.88333,0.448609,1,1,49048.5,77315.0,1690,0.8202793,3.9539013,120.27734,293.69922,7.26307,348.699,35.3029,2.84939,28.4558,35.7264
1980-01-10 00:37:06,1,-2.16154,8.23077,-2.4,0.547615,1,1,42586.8,66479.9,1690,0.82028455,3.9538269,120.26953,293.69922,7.20035,341.735,30.5626,-2.0301,26.5152,33.1286
1980-01-10 00:37:47,1,-1.73846,8.13846,-3.07692,0.288846,1,1,43230.6,70452.7,1690,0.82028455,3.9538269,120.26172,293.69922,7.6347,347.451,29.1189,-5.65497,26.7149,34.1041
1980-01-10 00:38:27,1,-1.82308,8.32308,-2.8,0.406311,1,1,42708.1,73043.9,1690,0.82028979,3.9537535,120.25781,293.69922,6.87254,345.711,30.2884,-4.05841,26.553,34.7256
1980-01-10 00:39:08,1,-1.9,8.38333,-2.2,0.421966,1,1,39498.7,80425.3,1690,0.82029504,3.95368,120.25,293.69922,7.29519,346.613,32.8299,-1.84862,25.5358,36.438
1980-01-10 00:39:48,1,-1.95833,8.44167,-2.35,0.457196,1,1,45997.7,61281.1,1690,0.8202951,3.95368,120.24609,293.69922,6.77925,346.046,32.228,-2.63461,27.5566,31.8069
1980-01-10 00:40:29,1,-2.59167,8.15,-2.4,0.297092,1,1,44118.4,72781.0,1690,0.82030034,3.9536066,120.23828,293.69922,7.80426,341.055,30.883,-1.8597,26.9878,34.6631
1980-01-10 00:41:09,1,-1.03333,8.725,-1.73333,0.461504,1,1,46558.1,67003.7,1690,0.82030559,3.9535332,120.23047,293.69922,7.5226,349.952,32.2555,0.614569,27.724,33.2589
1980-01-10 00:41:50,1,-0.933333,8.825,-1.23333,0.745868,1,1,43943.4,70568.6,1690,0.82030559,3.9535332,120.22656,293.69922,6.85245,351.703,34.8931,4.86556,26.9342,34.1322
1980-01-10 00:42:30,1,-0.778571,8.62857,-1.96429,0.601444,1,1,47845.6,65906.6,1690,0.82031083,3.9534597,120.21875,293.69922,7.31116,353.586,32.2617,0.589662,28.1047,32.9855
1980-01-10 00:43:11,1,-1.0,8.55385,-2.3,0.427183,1,1,36835.2,63726.0,1690,0.82031608,3.9533854,120.21484,293.69922,7.2033,351.269,32.8063,-2.8463,24.6598,32.4352
1980-01-10 00:43:51,1,-0.530769,8.56154,-2.41538,0.4202,1,1,47005.9,65948.9,1690,0.82031608,3.9533854,120.20703,293.69922,6.99676,354.587,33.1955,-3.28813,27.857,32.996
1980-01-10 00:44:32,1,0.15,8.40833,-2.89167,0.563348,1,1,37570.2,72961.4,1690,0.82032132,3.9533119,120.20313,293.69922,7.31191,356.409,32.9961,-5.18445,24.9046,34.706
1980-01-10 00:45:12,1,0.215385,8.80769,-1.52308,0.414101,1,1,44982.7,70790.9,1690,0.82032657,3.9532385,120.19531,293.69922,7.40427,360.58,33.5274,5.60304,27.2509,34.1859
1980-01-10 00:45:53,1,0.330769,8.80769,-1.52308,0.405728,1,1,54249.3,74176.5,1690,0.82032657,3.9532385,120.1875,293.69922,7.71189,359.984,33.4755,1.28393,29.9264,34.9938
1980-01-10 00:46:33,1,0.507143,8.61429,-1.7,0.426483,1,1,50672.5,73744.4,1690,0.82033181,3.9531651,120.18359,293.69922,7.46872,359.514,33.187,0.063283,28.923,34.8917
1980-01-10 00:47:14,1,0.578571,8.6,-1.9,0.687832,1,1,48624.5,73220.0,1690,0.82033706,3.9530916,120.17578,293.69922,7.99699,355.223,36.0488,2.64094,28.3325,34.7674
1980-01-10 00:47:54,1,0.669231,8.52308,-2.06923,0.293318,1,1,48163.5,67942.4,1690,0.82033706,3.9530916,120.17188,293.69922,7.13831,361.149,32.8137,-3.1525,28.1979,33.491
1980-01-10 00:48:35,1,-1.81538,8.53077,-1.01538,0.813423,1,1,57234.4,64154.0,1690,0.8203423,3.9530182,120.16406,293.69922,7.19446,352.979,33.2545,0.0405284,30.7388,32.5439
1980-01-10 00:49:15,-1,nan,nan,nan,nan,1,4,nan,nan,1690,0.82034755,3.9529438,120.16016,293.69922,nan,nan,nan,nan,nan,nan
1980-01-10 00:49:56,1,-2.59231,8.29231,-1.33846,0.48431,1,1,45154.9,67398.4,1690,0.82034755,3.9529438,120.15234,293.69922,7.45528,342.138,31.3743,2.84534,27.303,33.3567
1980-01-10 00:50:36,1,-2.16667,8.44167,-0.666667,1.10538,1,1,42925.6,59432.3,1690,0.82035279,3.9528704,120.14453,293.69922,7.21874,341.456,31.8767,11.7272,26.6205,31.3234
1980-01-10 00:51:17,1,-2.3,8.43333,-0.8,0.385861,1,1,42601.6,72094.9,1690,0.82035804,3.9527969,120.14063,293.69922,7.83833,341.675,31.745,5.13334,26.5199,34.4993
1980-01-10 00:51:57,1,-2.36154,8.43077,-0.661538,0.4984,1,1,42529.4,67518.4,1690,0.82035804,3.9527969,120.13281,293.69922,7.27411,340.685,29.9652,9.6448,26.4974,33.3863
1980-01-10 00:52:38,1,-2.58333,8.34167,-1.1,0.259139,1,1,39343.6,64650.8,1690,0.82036328,3.9527235,120.12891,293.69922,6.99807,338.91,30.2989,2.91441,25.4856,32.6697
1980-01-10 00:53:18,1,-3.00769,8.10769,-1.46154,0.48431,1,1,40412.4,68427.0,1690,0.82036853,3.9526501,120.12109,293.69922,7.47338,338.867,29.5609,3.40572,25.8294,33.6103
1980-01-10 00:53:59,1,-2.62308,8.25385,-1.73846,0.588751,1,1,43083.7,67764.7,1690,0.82036853,3.9526501,120.11328,293.69922,7.35395,344.973,32.131,-0.692456,26.6695,33.4472
1980-01-10 00:54:39,1,-3.275,7.88333,-1.78333,0.595527,1,1,44209.1,64353.9,1690,0.82037377,3.9525766,120.10938,293.69922,6.98148,336.036,29.2018,-2.0618,27.0155,32.5946
1980-01-10 00:55:20,1,-4.16364,7.59091,-0.436364,0.849599,1,1,38759.5,67689.7,1690,0.82037902,3.9525023,120.10156,293.69922,6.84947,333.62,27.6114,0.987472,25.2957,33.4287
1980-01-10 00:56:00,1,-2.775,8.40833,-0.0666667,0.454453,1,1,43281.9,69106.7,1690,0.82038426,3.9524288,120.09766,293.69922,7.17049,335.564,30.4001,6.49709,26.7307,33.7767
1980-01-10 00:56:41,1,-2.35,8.4,-0.916667,0.607362,1,1,32548.3,72406.4,1690,0.82038426,3.9524288,120.08984,293.69922,7.3926,339.544,32.9471,0.870634,23.1805,34.5738
1980-01-10 00:57:21,1,-2.35,8.4,-1.06667,0.389087,1,1,47057.8,67220.8,1690,0.82038951,3.9523554,120.08594,293.69922,7.07308,338.114,31.2131,0.134679,27.8723,33.3127
1980-01-10 00:58:02,1,-2.37692,8.38462,-0.723077,0.472561,1,1,41439.8,74534.5,1690,0.82039475,3.952282,120.07813,293.69922,6.96225,342.178,34.7402,5.35563,26.1557,35.0781
1980-01-10 00:58:42,1,-1.93333,8.625,-0.983333,0.387925,1,1,45825.0,71015.6,1690,0.82039475,3.952282,120.07031,293.69922,7.19629,341.57,34.1845,2.73885,27.5049,34.2401
1980-01-10 00:59:23,1,-2.25,8.53333,-0.166667,0.365529,1,1,37365.3,64577.6,1690,0.8204,3.9522085,120.06641,293.69922,7.19216,341.293,34.7872,7.72104,24.8366,32.6512
1980-01-10 01:00:03,1,-1.625,8.73333,-0.0166667,0.4129,1,1,46003.1,78314.5,1690,0.8204053,3.9521351,120.05859,293.69922,8.07033,347.051,34.2663,14.2214,27.5582,35.9566
1980-01-10 01:00:44,1,-0.0230769,8.73846,0.561538,0.388747,1,1,53364.1,76697.9,1690,0.8204053,3.9521351,120.05469,293.69922,7.39576,354.621,36.2918,14.5279,29.6813,35.5836
1980-01-10 01:01:24,1,0.761538,8.83846,0.876923,0.543819,1,1,45976.4,73243.6,1690,0.82041049,3.9520607,120.04688,293.69922,7.35408,362.549,32.1599,19.6509,27.5502,34.773
1980-01-10 01:02:05,1,0.0923077,8.81538,1.06923,0.393588,1,1,48649.1,70578.0,1690,0.82041574,3.9519873,120.04272,293.69897,7.29807,352.687,36.1351,17.3894,28.3397,34.1344
1980-01-10 01:02:45,1,0.235714,8.65,1.51429,0.876042,1,1,49174.4,68842.8,1690,0.82041574,3.9519873,120.03491,293.69897,7.20042,354.365,35.0162,19.0702,28.4923,33.7122
1980-01-10 01:03:26,1,-0.538462,8.73077,-0.0769231,0.493148,1,1,55977.6,70874.9,1690,0.82042098,3.9519138,120.0271,293.69897,7.63741,351.74,36.6241,6.80335,30.3994,34.2061
1980-01-10 01:04:06,1,-0.0923077,8.73846,0.184615,0.810362,1,1,48665.9,71875.0,1690,0.82042623,3.9518404,120.02319,293.69897,7.25302,351.55,34.9843,9.7806,28.3446,34.4466
1980-01-10 01:04:47,1,0.0769231,8.76154,0.969231,0.443893,1,1,40302.1,79852.4,1690,0.82042623,3.9518404,120.01538,293.69897,7.51958,353.045,35.5784,18.1236,25.7942,36.308
1980-01-10 01:05:27,1,0.223077,8.86923,-1.63846,0.836731,1,1,42878.4,55917.5,1690,0.82043147,3.951767,120.01147,293.69897,6.16006,356.062,30.8186,-0.212559,26.6059,30.3831
1980-01-10 01:06:08,1,0.833333,8.78333,-2.64167,0.534829,1,1,37667.3,53660.1,1690,0.82043672,3.9516926,120.00366,293.69897,6.11554,361.726,30.2459,-5.99696,24.9368,29.7635
1980-01-10 01:06:48,1,1.04615,8.75385,-2.77692,0.389051,1,1,43681.8,57869.7,1690,0.82043672,3.9516926,119.99585,293.69897,6.89272,359.632,29.1524,-5.46389,26.8539,30.9089
1980-01-10 01:07:29,1,0.869231,8.66154,-2.96154,0.314915,1,1,31158.7,59544.7,1690,0.82044196,3.9516191,119.99194,293.69897,6.46308,359.41,31.9907,-5.98287,22.6802,31.353
1980-01-10 01:08:09,1,0.357143,8.27143,-3.65714,0.341963,1,1,40486.1,58606.6,1690,0.82044721,3.9515457,119.98413,293.69897,6.55001,357.194,27.0222,-11.4721,25.853,31.1051
1980-01-10 01:08:50,1,0.366667,8.275,-3.33333,0.331139,1,1,42112.6,59108.6,1690,0.82044721,3.9515457,119.98022,293.69897,6.7498,358.941,32.0599,-3.11829,26.3672,31.238
1980-01-10 01:09:30,1,0.392857,8.47143,-2.91429,0.313392,1,1,46405.5,67301.0,1690,0.82045245,3.9514723,119.97241,293.69897,6.81212,356.093,30.5897,-4.59418,27.6785,33.3325
1980-01-10 01:10:11,1,0.107692,8.54615,-3.02308,0.370511,1,1,45522.3,55903.3,1690,0.8204577,3.9513988,119.96851,293.69897,6.52792,353.628,30.1974,-5.79324,27.4138,30.3792
1980-01-10 01:10:51,1,0.461538,8.37692,-3.23846,0.438934,1,1,37157.2,53172.6,1690,0.8204577,3.9513988,119.96069,293.69897,6.37454,353.494,28.9556,-8.00761,24.7673,29.628
1980-01-10 01:11:32,1,0.0583333,8.56667,-2.93333,0.381062,1,1,43121.2,65946.2,1690,0.82046294,3.9513254,119.95288,293.69897,6.51318,355.177,30.8072,-8.10005,26.6811,32.9953
1980-01-10 01:12:12,1,-0.284615,8.4,-3.31538,0.320318,1,1,33734.2,44259.1,1690,0.82046819,3.951251,119.94897,293.69897,6.93729,352.836,27.8678,-8.6163,23.599,27.0308
1980-01-10 01:12:53,1,-0.291667,8.69167,-2.89167,0.385951,1,1,40288.2,53672.0,1690,0.82046819,3.951251,119.94116,293.69897,6.98728,352.093,30.5009,-2.16481,25.7897,29.7668
1980-01-10 01:13:33,1,-0.2,8.725,-2.84167,0.774148,1,1,40178.3,55100.7,1690,0.82047343,3.9511776,119.93726,293.69897,6.78841,348.474,28.7105,-6.13232,25.7545,30.1604
1980-01-10 01:14:14,1,0.207692,8.89231,-2.25385,0.529932,1,1,44294.1,53353.3,1690,0.82047868,3.9511042,119.92944,293.69897,6.79684,352.641,30.7215,-1.16867,27.0415,29.6783
1980-01-10 01:14:54,1,0.2,8.52308,-3.05385,0.343666,1,1,40493.1,61982.8,1690,0.82047868,3.9511042,119.92554,293.69897,7.08027,354.628,29.9794,-7.18061,25.8552,31.9885
1980-01-10 01:15:35,1,0.707692,8.73846,-2.56923,0.708611,1,1,43126.3,47079.4,1690,0.82048392,3.9510307,119.91772,293.69897,6.59831,363.106,29.6005,-1.96311,26.6827,27.8788
1980-01-10 01:16:15,1,1.02308,8.70769,-2.59231,0.442157,1,1,41421.2,54099.4,1690,0.82048917,3.9509573,119.90991,293.69897,6.61742,357.216,29.0805,-3.58893,26.1499,29.885
1980-01-10 01:16:56,1,0.923077,8.89231,-2.83846,0.254661,1,1,42770.0,46145.2,1690,0.82048917,3.9509573,119.90601,293.69897,6.08623,360.097,28.9571,-4.29719,26.5722,27.6008
1980-01-10 01:17:36,1,0.607692,8.78462,-2.94615,0.422307,1,1,40358.3,46395.6,1690,0.82049441,3.9508829,119.89819,293.69897,6.64928,354.541,29.2563,-2.77209,25.8121,27.6756
1980-01-10 01:18:17,1,0.616667,8.825,-2.675,0.31907,1,1,35483.4,45970.0,1690,0.82049966,3.9508095,119.89429,293.69897,6.34657,355.121,30.933,-4.78376,24.2031,27.5483
1980-01-10 01:18:57,1,0.607143,8.92857,-2.40714,0.404187,1,1,38370.1,48087.2,1690,0.82049966,3.9508095,119.88647,293.69897,6.84694,355.631,30.5849,-1.75397,25.1683,28.1756
1980-01-10 01:19:38,1,0.825,8.9,-2.4,0.319179,1,1,40783.2,50549.1,1690,0.8205049,3.950736,119.87866,293.69897,6.4697,354.642,32.1214,0.0137875,25.9477,28.8878
1980-01-10 01:20:18,1,0.785714,8.81429,-2.58571,0.303718,1,1,37639.6,44134.2,1690,0.82051015,3.9506626,119.87476,293.69897,6.78007,358.164,29.6793,-4.93629,24.9276,26.9927
1980-01-10 01:20:59,1,0.323077,8.91538,-2.25385,0.874084,1,1,39421.2,43968.4,1690,0.82051015,3.9506626,119.86694,293.69897,6.56783,356.965,30.4176,-0.455566,25.5107,26.9419
1980-01-10 01:21:39,1,1.44615,8.70769,-2.65385,0.599605,1,1,36007.7,47232.2,1690,0.82051539,3.9505892,119.86304,293.69897,6.31437,360.824,28.321,-3.27003,24.3812,27.924
1980-01-10 01:22:20,1,0.341667,9.05,-2.075,0.398086,1,1,48702.6,52776.7,1690,0.82052058,3.9505157,119.85498,293.69873,6.58792,354.029,30.5898,-1.91445,28.3553,29.5175
1980-01-10 01:23:00,1,0.730769,9.08462,-1.98462,0.486869,1,1,35136.2,47252.6,1690,0.82052583,3.9504414,119.85107,293.69873,6.53468,355.79,28.9139,-0.863628,24.0844,27.93
1980-01-10 01:23:41,1,0.241667,9.03333,-2.04167,0.471257,1,1,47185.6,48788.2,1690,0.82052583,3.9504414,119.84326,293.69873,7.40061,352.061,31.6137,4.1534,27.9102,28.3802
1980-01-10 01:24:21,1,0.469231,8.97692,-2.17692,0.471809,1,1,38358.1,44404.6,1690,0.82053107,3.9503679,119.83545,293.69873,6.62986,356.756,29.9634,-0.809616,25.1644,27.0752
1980-01-10 01:25:02,1,-0.233333,8.88333,-2.35,0.343188,1,1,38221.2,47853.0,1690,0.82053632,3.9502945,119.83154,293.69873,6.55554,348.828,30.3229,-0.419564,25.1194,28.1069
1980-01-10 01:25:42,1,0.0846154,8.97692,-2.35385,0.362927,1,1,38844.0,46982.3,1690,0.82053632,3.9502945,119.82373,293.69873,6.33427,351.448,29.9889,-5.21215,25.3233,27.85
1980-01-10 01:26:23,1,0.683333,9.06667,-1.825,0.537419,1,1,43187.9,41358.3,1690,0.82054156,3.9502211,119.81982,293.69873,6.18994,356.439,31.7654,0.225088,26.7017,26.13
1980-01-10 01:27:03,1,1.26154,8.96154,-0.807692,0.468284,1,1,42647.1,69536.1,1690,0.82054681,3.9501476,119.81201,293.69873,7.33475,359.421,31.7542,3.8403,26.534,33.8815
1980-01-10 01:27:44,1,0.884615,8.91538,-0.5,0.270874,1,1,56101.0,63583.1,1690,0.82054681,3.9501476,119.8042,293.69873,7.1357,356.814,34.541,5.69966,30.4329,32.3988
1980-01-10 01:29:04,1,0.0,9.0,-2.6,0.252982,1,1,39500.4,47234.1,1690,0.82049644,3.9414923,119.71268,293.61893,6.95551,352.704,31.9219,-0.795775,25.5363,27.9245
1980-01-10 01:29:44,1,0.0461538,8.99231,-2.5,0.225583,1,1,39791.7,44013.5,1690,0.82049984,3.9414406,119.7088,293.61896,6.37609,354.78,30.1044,-3.01998,25.6303,26.9557
1980-01-10 01:30:48,1,0.153846,8.76923,-2.52308,0.157645,1,1,29182.3,58280.9,1690,0.82056254,3.9499264,119.77686,293.69873,6.51467,353.672,31.8252,-7.39676,21.9491,31.0185
1980-01-10 01:31:05,1,0.185714,8.77143,-2.49286,0.206155,1,1,38388.7,49363.2,1690,0.82050699,3.9413457,119.69705,293.61893,6.66765,353.61,30.6431,-4.72917,25.1744,28.5469
1980-01-10 02:06:52,-1,nan,nan,nan,nan,1,3,nan,nan,1690,0.82075125,3.9472761,119.44824,293.69824,nan,353.06,32.3467,19.9621,nan,nan
1980-01-10 02:07:32,-1,nan,nan,nan,nan,1,4,nan,nan,1690,0.82075649,3.9472027,119.44043,293.69824,nan,nan,nan,nan,nan,nan
1980-01-10 02:08:13,1,0.118182,9.10909,-0.672727,0.455998,1,1,57237.2,47823.9,1690,0.82076168,3.9471292,119.43652,293.69824,6.57743,358.768,33.6225,15.9903,30.7395,28.0983
1980-01-10 02:08:53,1,0.353846,9.28462,-0.6,0.314915,1,1,40748.2,53392.5,1690,0.82076174,3.9471292,119.42871,293.69824,6.92762,355.226,32.2664,10.3339,25.9366,29.6892
1980-01-10 02:09:35,1,0.891667,9.09167,-1.06667,0.443941,1,1,53138.4,49995.1,1690,0.82076693,3.9470558,119.4248,293.69824,6.49063,355.16,34.0135,12.9112,29.6184,28.7291
1980-01-10 02:10:15,1,0.966667,9.15833,-0.433333,0.252075,1,1,40642.9,49900.2,1690,0.82077217,3.9469824,119.41699,293.69824,6.09026,357.796,33.622,14.662,25.903,28.7018
1980-01-10 02:10:56,-1,nan,nan,nan,nan,1,4,nan,nan,1690,0.82077217,3.9469824,119.40918,293.69824,nan,nan,nan,nan,nan,nan
1980-01-10 02:11:36,-1,nan,nan,nan,nan,1,4,nan,nan,1690,0.82077742,3.946909,119.40527,293.69824,nan,nan,nan,nan,nan,nan